Regional Weather Roundup
Issued by NWS Sioux Falls, SD

Home | Current Version | Previous Version | Graphics & Text | Print | Product List | Glossary On
Versions: 1 2 3 4 5 6 7 8 9 10 11 12 13 14 15 16 17 18 19 20 21 22 23 24 25 26 27 28 29 30 31 32 33 34 35 36 37 38 39 40 41 42 43 44 45 46 47 48 49 50
277
ASUS43 KFSD 281710
RWRFSD

WEATHER ROUNDUP FOR SE SOUTH DAKOTA/SW MINNESOTA/NW IOWA
NATIONAL WEATHER SERVICE SIOUX FALLS SD
1200 PM CDT WED JUN 28 2017

NOTE: "FAIR" INDICATES FEW OR NO CLOUDS BELOW 12,000 FEET WITH NO
SIGNIFICANT WEATHER AND OR OBSTRUCTIONS TO VISIBILITY.


SDZ038>040-050-052>070-281800-
SOUTHEAST SOUTH DAKOTA

CITY           SKY/WX    TMP DP  RH WIND       PRES   REMARKS
BROOKINGS      CLOUDY    72  62  71 W16       29.59R
CHAMBERLAIN    PTSUNNY   82  62  49 W18G25    29.66S
HURON          MOSUNNY   79  63  57 W17G25    29.60R
MADISON        FAIR      75  66  73 W12G20    29.61R
MITCHELL       MOSUNNY   81  61  50 W15G21    29.62R
SIOUX FALLS    MOSUNNY   76  66  71 SW9       29.61S
WINNER         FAIR      83  56  39 NW16G25   29.69S
YANKTON        SUNNY     79  62  56 W9        29.64S
$$

MNZ071-072-080-081-089-090-097-098-281800-
SOUTHWEST MINNESOTA

CITY           SKY/WX    TMP DP  RH WIND       PRES   REMARKS
FAIRMONT       CLOUDY    76  67  73 SW23G29   29.60F
JACKSON        CLOUDY    75  64  69 SW18G24   29.62S
LUVERNE        SUNNY     73  61  64 SW15G21   29.62S
MARSHALL         N/A     79  66  64 W22G29    29.53S
MONTEVIDEO     CLOUDY    73  66  78 W14       29.50F
PIPESTONE      MOSUNNY   75  64  69 W16G23    29.60R
REDWOOD FALLS  PTSUNNY   77  64  64 SW18G25   29.52F
TRACY          MOSUNNY   74  66  76 SW20      29.56R
WINDOM         CLOUDY    79  64  61 SW16      29.58F
WORTHINGTON    MOSUNNY   76  65  68 SW20      29.61S
$$

IAZ001>003-012>014-020>022-031-032-NEZ013-014-SDZ071-281800-
NORTHWEST IOWA

CITY           SKY/WX    TMP DP  RH WIND       PRES   REMARKS
CHEROKEE       CLOUDY    76  71  87 SW15G21   29.65F
DENISON        MOSUNNY   79  72  78 SW9G21    29.68F
ESTHERVILLE    CLOUDY    77  68  73 SW18G30   29.60F
LE MARS        MOSUNNY   79  68  69 SW14G21   29.63F
ORANGE CITY    SUNNY     79  68  69 SW13G22   29.63S
SHELDON        SUNNY     79  64  61 SW16G22   29.61F
SIOUX CITY     MOSUNNY   80  73  79 W10       29.64F
SPENCER        PTSUNNY   77  68  73 SW20G28   29.63F
STORM LAKE     RAIN      70  68  94 SW13G22   29.67R VSB 1
$$

ABBREVIATIONS USED IN REMARKS
   TC - TEMPERATURE IN CELSIUS
  WCI - WIND CHILL INDEX
   HX - HEAT INDEX
  VSB - VISIBILITY





USA.gov is the U.S. government's official web portal to all federal, state and local government web resources and services.